Location: �mondeville
(49.4591°N, 1.3431°W)
Time: 13:14:29
(UTC+00:00)

Cosmos 1140 Rocket - Pass Details

Date: 22 October 2019
Orbit: 745 x 766 km, 74.1° (Epoch: 17 November)

Event Time Altitude Azimuth Distance (km) Brightness Sun altitude
Exits shadow 03:56:22 29° 167° (SSE) 1,360 4.7 -26.6°
Maximum altitude 03:58:43 51° 107° (ESE) 941 4.2 -26.2°
Drops below altitude 10° 04:03:43 10° 32° (NNE) 2,281 6.5 -25.4°
Sets 04:06:07 0° 28° (NNE) 3,207 7.3 -25.1°
